User: anonymous   Login
Location: Newark
(10.7761°N, 106.6983°E)
Time: 22:24:25
(UTC+00:00)
Language:

ISS - Orbit

View from above orbital plane
View from above orbital plane
View from above satellite
View from above satellite

Ground track
Ground track

The orbit data is extracted from the following two-line orbital elements,

1 25544U 98067A   19232.53622703  .00016717  00000-0  10270-3 0  9068
2 25544  51.6402  42.0325 0007578 304.9129  55.1309 15.50405619 25232
Epoch (UTC): 20 August 2019 12:52:10
Eccentricity: 0.0007578
inclination: 51.6402°
perigee height: 410 km
apogee height: 420 km
right ascension of ascending node: 42.0325°
argument of perigee: 304.9129°
revolutions per day: 15.50405619
mean anomaly at epoch: 55.1309°
orbit number at epoch: 2523

The dashed part of the orbit path shows where the satellite is in the earth's shadow,  

DLR